Faith, SD

7:37 AM MDT on April 28, 2017 (GMT -0600)
Faith

Weather History for KD07 - September, 2014

Change the Weather History Date:

Wednesday, September 3, 2014

  Actual Average Record
Temperature  
Mean Temperature 66 °F 67 °F  
Max Temperature 83 °F 81 °F 102 °F (1998)
Min Temperature 49 °F 53 °F 43 °F (2010)
Degree Days  
Heating Degree Days 0 3  
Month to date heating degree days 3 7  
Since 1 July heating degree days 46 40  
Cooling Degree Days 1 4  
Month to date cooling degree days 1 14  
Year to date cooling degree days 400 589  
Growing Degree Days 15 (Base 50)    
Moisture  
Dew Point 57 °F    
Average Humidity 70    
Maximum Humidity 93    
Minimum Humidity 47    
Precipitation  
Precipitation 0.00 in 0.07 in 0.16 in (1999)
Month to date precipitation 0.03 0.18  
Year to date precipitation 16.54 14.00  
Sea Level Pressure  
Sea Level Pressure 29.59 in    
Wind  
Wind Speed 11 mph (ESE)    
Max Wind Speed 33 mph    
Max Gust Speed 43 mph    
T = Trace of Precipitation, MM = Missing Value Source: NWS Daily Summary

Daily Weather History Graph

Daily Weather History Graph

Search for Another Location

Airport or City:

Trip Planner

Search our weather history database for the weather conditions in past years. The results will help you decide how hot, cold, wet, or windy it might be!

Date:

Astronomy

Sep. 03, 2014 Rise Set
Actual Time 6:12 AM MDT 7:21 PM MDT
Civil Twilight 5:42 AM MDT 7:51 PM MDT
Nautical Twilight 5:06 AM MDT 8:27 PM MDT
Astronomical Twilight 4:27 AM MDT 9:05 PM MDT
Moon 3:14 PM MDT (9/3) No Moon Set
Length of Visible Light 14h 09m
Length of Day
13h 08m
Waxing Gibbous, 64% of the Moon is Illuminated
Sep 3
Waxing Gibbous
Sep 8
Full
Sep 15
Last Quarter
Sep 24
New
Oct 1
First Quarter

Hourly Weather History & Observations

Time (MDT) Temp. Heat Index Dew Point Humidity Pressure Visibility Wind Dir Wind Speed Gust Speed Precip Events Conditions
12:56 AM 57.0 °F - 48.9 °F 74% 29.70 in - NE 6.9 mph - N/A   Unknown
1:56 AM 55.9 °F - 48.9 °F 77% 29.68 in - East 9.2 mph - N/A   Unknown
2:56 AM 54.0 °F - 48.9 °F 83% 29.65 in - East 8.1 mph - N/A   Unknown
3:56 AM 52.0 °F - 48.9 °F 89% 29.64 in - NE 9.2 mph - N/A   Unknown
4:56 AM 50.0 °F - 48.0 °F 93% 29.64 in - NNE 6.9 mph - N/A   Unknown
5:56 AM 48.9 °F - 46.9 °F 93% 29.63 in - NE 6.9 mph - N/A   Unknown
6:56 AM 51.1 °F - 48.9 °F 92% 29.62 in - NE 6.9 mph - N/A   Unknown
7:56 AM 59.0 °F - 54.0 °F 83% 29.63 in - Calm Calm - N/A   Unknown
8:56 AM 66.0 °F - 59.0 °F 78% 29.61 in - NNE 3.5 mph - N/A   Unknown
9:56 AM 70.0 °F - 61.0 °F 73% 29.62 in - SSW 4.6 mph - N/A   Unknown
10:56 AM 73.9 °F - 63.0 °F 68% 29.62 in - SSE 6.9 mph - N/A   Unknown
11:56 AM 77.0 °F - 63.0 °F 62% 29.61 in - SSE 9.2 mph - N/A   Unknown
12:56 PM 79.0 °F - 63.0 °F 58% 29.58 in - SE 9.2 mph - N/A   Unknown
1:56 PM 82.0 °F 83.1 °F 63.0 °F 52% 29.57 in - SSE 9.2 mph - N/A   Unknown
2:56 PM 82.0 °F 83.0 °F 62.1 °F 51% 29.55 in - SE 11.5 mph - N/A   Unknown
3:56 PM 82.9 °F 83.3 °F 61.0 °F 47% 29.55 in - SSE 12.7 mph - N/A   Unknown
4:56 PM 82.9 °F 83.2 °F 60.1 °F 46% 29.53 in - SSE 15.0 mph - N/A   Unknown
5:56 PM 81.0 °F 81.3 °F 59.0 °F 47% 29.52 in - SE 11.5 mph - N/A   Unknown
6:56 PM 78.1 °F - 64.0 °F 62% 29.51 in - ESE 12.7 mph - N/A   Unknown
7:56 PM 73.9 °F - 64.0 °F 71% 29.50 in - ESE 15.0 mph - N/A   Unknown
8:56 PM 73.0 °F - 60.1 °F 64% 29.49 in - North - - N/A   Unknown
9:56 PM 71.1 °F - 59.0 °F 66% 29.49 in - SE 15.0 mph - N/A   Unknown
10:56 PM 66.0 °F - 59.0 °F 78% 29.52 in - SW 16.1 mph - N/A   Unknown
11:43 PM 64.9 °F - 59.0 °F 81% 29.60 in - West 15.0 mph - N/A   Unknown
11:56 PM 64.9 °F - 57.0 °F 75% 29.57 in - WNW 25.3 mph 34.5 mph N/A   Unknown